Location: Melizzano
(41.1500°N, 14.5000°E)
Time: 07:08:14
(UTC+00:00)

Cosmos 1709 Rocket - Pass Details

Date: 30 September 2021
Orbit: 948 x 1002 km, 82.9° (Epoch: 27 October)

Event Time Altitude Azimuth Distance (km) Brightness Sun altitude
Rises 03:29:23 0° 352° (N) 3,628 7.0 -17.4°
Reaches altitude 10° 03:31:52 10° 352° (N) 2,681 6.3 -16.9°
Maximum altitude 03:38:00 86° 265° (W) 962 3.9 -15.8°
Drops below altitude 10° 03:44:09 10° 176° (S) 2,688 6.3 -14.6°
Sets 03:46:39 0° 176° (S) 3,638 6.9 -14.2°
